• Join FlightAware (Why Join?)
  • Login
  • US Flag GB Flag 
19:20 EDT


 

Airport Tracker/Info


-or-


 

Live Flight TrackerFlight Track Log ✈ AAY874 ✈ 09-Mar-2014 ✈ KPIE - KBGR

Flight Track Log - Related Links

Times and Time Zones

All times are in EDT time to prevent confusion due to time zone crossing. See the AAY874 flight status page for this flight to view local times or setup timezone preferences in your user account.

Time Position Orientation Groundspeed Altitude Reporting Facility
EDT Latitude Longitude Course Direction KTS MPH feet Rate Location/Type
14:12 27.9333 -82.7000 North 171 197 1,000  Level Tampa TRACON
14:13 27.9833 -82.6667 30° Northeast 215 247 2,500 1,740 Climbing Tampa TRACON
14:14 28.0500 -82.6833 348° North 276 318 4,500 2,400 Climbing Tampa TRACON
14:15 28.1333 -82.6833 360° North 283 326 7,300 2,640 Climbing Tampa TRACON
14:16 28.2167 -82.6833 360° North 294 338 9,800 1,080 Climbing Tampa TRACON
14:17 28.8853 -82.6248 North  Level FlightAware Approximate
14:17 28.3103 -82.6192 31° Northeast 291 335 10,100  Level Jacksonville Center
14:18 28.3456 -82.5294 66° East 276 318 11,000 900 Climbing Jacksonville Center
14:19 28.4289 -82.5031 16° North 283 326 12,000 840 Climbing Jacksonville Center
14:20 28.5292 -82.5286 347° North 300 345 12,700 1,500 Climbing Jacksonville Center
14:21 28.6358 -82.5567 347° North 350 403 15,000 1,560 Climbing Jacksonville Center
14:22 28.7528 -82.5847 348° North 374 430 15,900 420 Climbing Jacksonville Center
14:23 28.8633 -82.6106 348° North 387 445 15,900  Level Jacksonville Center
14:24 28.9739 -82.6361 349° North 394 453 16,000 900 Climbing Jacksonville Center
14:25 29.0847 -82.6622 348° North 394 453 17,700 1,680 Climbing Jacksonville Center
14:26 29.1994 -82.6833 351° North 401 461 19,400 1,500 Climbing Jacksonville Center
14:27 29.3206 -82.7117 348° North 421 484 20,800 1,500 Climbing Jacksonville Center
14:28 29.4333 -82.7281 353° North 441 507 22,500 1,740 Climbing Jacksonville Center
14:29 29.5669 -82.7564 350° North 446 513 24,300 1,620 Climbing Jacksonville Center
14:30 29.6903 -82.7492 North 446 513 25,800 1,020 Climbing Jacksonville Center
14:31 29.8156 -82.7156 13° North 451 519 26,400 900 Climbing Jacksonville Center
14:32 29.9428 -82.6936 North 451 519 27,700 1,200 Climbing Jacksonville Center
14:33 30.0597 -82.6597 14° North 451 519 28,800 1,200 Climbing Jacksonville Center
14:34 30.1953 -82.6306 11° North 451 519 30,100 1,080 Climbing Jacksonville Center
14:35 30.3183 -82.5967 13° North 451 519 31,000 420 Climbing Jacksonville Center
14:36 30.4436 -82.5697 11° North 446 513 31,000  Level Jacksonville Center
14:37 30.5583 -82.5017 27° Northeast 451 519 31,000  Level Jacksonville Center
14:38 30.6728 -82.4119 34° Northeast 468 539 31,000  Level Jacksonville Center
14:39 30.7725 -82.3267 36° Northeast 478 550 31,000  Level Jacksonville Center
14:40 30.8869 -82.2389 33° Northeast 489 563 31,000  Level Jacksonville Center
14:41 30.9972 -82.1389 38° Northeast 494 568 31,000  Level Jacksonville Center
14:42 31.1114 -82.0506 34° Northeast 500 575 31,000  Level Jacksonville Center
14:43 31.2236 -81.9547 36° Northeast 495 570 31,000  Level Jacksonville Center
14:44 31.3356 -81.8614 35° Northeast 495 570 31,000  Level Jacksonville Center
14:45 31.4578 -81.7553 37° Northeast 501 577 31,000  Level Jacksonville Center
14:46 31.5719 -81.6661 34° Northeast 494 568 31,000  Level Jacksonville Center
14:47 31.6711 -81.5769 37° Northeast 489 563 31,000  Level Jacksonville Center
14:48 31.7953 -81.4750 35° Northeast 489 563 31,000  Level Jacksonville Center
14:49 31.9047 -81.3753 38° Northeast 502 578 31,000  Level Jacksonville Center
14:50 32.0164 -81.2853 34° Northeast 488 562 31,000  Level Jacksonville Center
14:51 32.1281 -81.1875 37° Northeast 497 572 31,000  Level Jacksonville Center
14:52 32.2414 -81.0947 35° Northeast 492 566 31,000  Level Jacksonville Center
14:53 32.3508 -80.9989 36° Northeast 492 566 31,000  Level Jacksonville Center
14:54 32.4642 -80.9031 35° Northeast 492 566 31,000  Level Jacksonville Center
14:55 32.5731 -80.8044 37° Northeast 492 566 31,000  Level Jacksonville Center
14:56 32.6842 -80.7131 35° Northeast 483 556 31,000  Level Jacksonville Center
14:57 32.7953 -80.6117 37° Northeast 496 571 31,000  Level Jacksonville Center
14:58 32.9042 -80.5197 35° Northeast 496 571 31,000  Level Jacksonville Center
14:59 33.0169 -80.4203 36° Northeast 496 571 31,000  Level Jacksonville Center
15:00 33.1319 -80.3253 35° Northeast 496 571 31,000  Level Jacksonville Center
15:01 33.2425 -80.2228 38° Northeast 496 571 31,000 60 Level Jacksonville Center
15:02 33.3533 -80.1275 36° Northeast 496 571 31,200 360 Climbing Jacksonville Center
15:03 33.4411 -80.0450 38° Northeast 496 571 31,800 600 Climbing Jacksonville Center
15:04 33.5619 -79.9414 36° Northeast 496 571 32,400 600 Climbing Jacksonville Center
15:05 33.6700 -79.8356 39° Northeast 496 571 33,000 300 Climbing Jacksonville Center
15:06 33.7847 -79.7442 34° Northeast 496 571 33,000  Level Jacksonville Center
15:07 33.8947 -79.6400 38° Northeast 496 571 33,000  Level Jacksonville Center
15:08 34.0047 -79.5433 36° Northeast 490 564 33,000  Level Jacksonville Center
15:09 34.1144 -79.4364 39° Northeast 490 564 33,000  Level Jacksonville Center
15:10 34.2206 -79.3492 34° Northeast 483 556 33,000  Level Jacksonville Center
15:13 34.4747 -79.1139 37° Northeast 501 577 33,000  Level Washington Center
15:14 34.5842 -79.0100 38° Northeast 501 577 33,000  Level Washington Center
15:15 34.6931 -78.9161 35° Northeast 490 564 33,000  Level Washington Center
15:16 34.7983 -78.8117 39° Northeast 490 564 33,000  Level Washington Center
15:17 34.9050 -78.7197 35° Northeast 484 557 33,000  Level Washington Center
15:18 35.0100 -78.6147 39° Northeast 478 550 33,000  Level Washington Center
15:19 35.1167 -78.5197 36° Northeast 478 550 33,000  Level Washington Center
15:20 35.2192 -78.4192 39° Northeast 471 542 33,000  Level Washington Center
15:21 35.3258 -78.3236 36° Northeast 471 542 33,000  Level Washington Center
15:22 35.4325 -78.2203 38° Northeast 476 548 33,000  Level Washington Center
15:23 35.5303 -78.1289 37° Northeast 482 555 33,000  Level Washington Center
15:24 35.6347 -78.0275 38° Northeast 477 549 33,000  Level Washington Center
15:25 35.7408 -77.9336 36° Northeast 477 549 33,000  Level Washington Center
15:26 35.8472 -77.8292 38° Northeast 472 543 33,000  Level Washington Center
15:27 35.9533 -77.7294 37° Northeast 477 549 33,000  Level Washington Center
15:28 36.0575 -77.6294 38° Northeast 477 549 33,000  Level Washington Center
15:29 36.1653 -77.5344 35° Northeast 471 542 33,000  Level Washington Center
15:30 36.2778 -77.4239 38° Northeast 466 536 33,000  Level Washington Center
15:31 36.3833 -77.3283 36° Northeast 466 536 33,000  Level Washington Center
15:32 36.4869 -77.2272 38° Northeast 466 536 33,000  Level Washington Center
15:33 36.5928 -77.1286 37° Northeast 472 543 33,000  Level Washington Center
15:34 36.6983 -77.0269 38° Northeast 467 537 33,000  Level Washington Center
15:35 36.8058 -76.9331 35° Northeast 467 537 33,000  Level Washington Center
15:36 36.9111 -76.8361 36° Northeast 467 537 33,000  Level Washington Center
15:37 37.0036 -76.7519 36° Northeast 467 537 33,000  Level Washington Center
15:38 37.1069 -76.6544 37° Northeast 461 531 33,000  Level Washington Center
15:39 37.2119 -76.5619 35° Northeast 461 531 33,000  Level Washington Center
15:40 37.3169 -76.4667 36° Northeast 461 531 33,000  Level Washington Center
15:41 37.4197 -76.3711 36° Northeast 461 531 33,000  Level Washington Center
15:42 37.5247 -76.2778 35° Northeast 461 531 33,000  Level Washington Center
15:43 37.6253 -76.1817 37° Northeast 461 531 33,000  Level Washington Center
15:44 37.7425 -76.0828 34° Northeast 456 525 33,000  Level Washington Center
15:45 37.8306 -75.9914 39° Northeast 451 519 33,000  Level Washington Center
15:46 37.9414 -75.8867 37° Northeast 456 525 33,000  Level Washington Center
15:47 38.0458 -75.7894 36° Northeast 456 525 33,000  Level Washington Center
15:48 38.1481 -75.6972 35° Northeast 451 519 33,000  Level Washington Center
15:49 38.2461 -75.6022 37° Northeast 451 519 33,000  Level Washington Center
15:50 38.3483 -75.5122 35° Northeast 451 519 33,000  Level Washington Center
15:51 38.4628 -75.4672 17° North 429 494 33,000  Level Washington Center
15:52 38.5733 -75.4164 20° North 423 487 33,000  Level Washington Center
15:53 38.6836 -75.3683 19° North 417 480 33,000  Level Washington Center
15:54 38.7836 -75.2747 36° Northeast 427 491 33,000  Level Washington Center
15:55 38.8856 -75.1889 33° Northeast 427 491 33,000  Level Washington Center
15:56 38.9853 -75.0950 36° Northeast 427 491 33,000  Level Washington Center
15:57 39.0828 -75.0033 36° Northeast 433 498 33,000  Level Washington Center
15:58 39.1781 -74.9114 37° Northeast 433 498 33,000  Level Washington Center
15:59 39.2797 -74.8194 35° Northeast 433 498 33,000  Level Washington Center
16:00 39.3769 -74.7269 36° Northeast 433 498 33,000  Level Washington Center
16:01 39.4722 -74.6400 35° Northeast 428 493 33,000  Level Washington Center
16:02 39.5692 -74.5444 37° Northeast 428 493 33,000  Level Washington Center
16:03 39.6644 -74.4567 35° Northeast 428 493 33,000  Level Washington Center
16:04 39.8381 -74.2908 36° Northeast 432 497 33,000  Level New York Center
16:05 39.9258 -74.2086 36° Northeast 432 497 33,000  Level New York Center
16:06 40.0225 -74.1103 38° Northeast 432 497 33,000  Level New York Center
16:07 40.1189 -74.0253 34° Northeast 426 490 33,000  Level New York Center
16:08 40.2133 -73.9239 39° Northeast 426 490 33,000  Level New York Center
16:11 40.4556 -73.6939 36° Northeast 436 502 33,000  Level Boston Center
16:12 40.5442 -73.6114 35° Northeast 430 495 33,000  Level Boston Center
16:13 40.6389 -73.5133 38° Northeast 434 499 33,000  Level Boston Center
16:14 40.7444 -73.4131 36° Northeast 430 495 33,000  Level Boston Center
16:15 40.8358 -73.3169 38° Northeast 435 501 33,000  Level Boston Center
16:16 40.9317 -73.2244 36° Northeast 429 494 33,000  Level Boston Center
16:17 41.0244 -73.1194 40° Northeast 438 504 33,000  Level Boston Center
16:18 41.1211 -73.0253 36° Northeast 433 498 33,000  Level Boston Center
16:19 41.2333 -72.9003 40° Northeast 439 505 33,000  Level Boston Center
16:20 41.3181 -72.8156 37° Northeast 433 498 33,000  Level Boston Center
16:21 41.4117 -72.7078 41° Northeast 441 507 33,000  Level Boston Center
16:22 41.5167 -72.6078 35° Northeast 438 504 33,000  Level Boston Center
16:23 41.6128 -72.4939 42° Northeast 445 512 33,000  Level Boston Center
16:24 41.7092 -72.4014 36° Northeast 430 495 33,000  Level Boston Center
16:25 41.8006 -72.2917 42° Northeast 441 507 33,000  Level Boston Center
16:26 41.9156 -72.1781 36° Northeast 431 496 33,000  Level Boston Center
16:27 42.0075 -72.0669 42° Northeast 444 511 33,000  Level Boston Center
16:28 42.1039 -71.9711 36° Northeast 436 502 33,000 -300 Level Boston Center
16:29 42.1944 -71.8625 42° Northeast 436 502 32,400 -540 Descending Boston Center
16:30 42.2889 -71.7661 37° Northeast 431 496 32,000 -240 Descending Boston Center
16:31 42.3789 -71.6600 41° Northeast 432 497 32,000  Level Boston Center
16:32 42.4700 -71.5617 39° Northeast 422 486 32,000  Level Boston Center
16:33 42.5656 -71.4531 40° Northeast 435 501 32,000  Level Boston Center
16:34 42.6786 -71.3328 38° Northeast 430 495 32,000  Level Boston Center
16:35 42.7661 -71.2286 41° Northeast 420 483 32,000  Level Boston Center
16:36 42.8572 -71.1322 38° Northeast 413 475 32,000  Level Boston Center
16:37 42.9464 -71.0225 42° Northeast 427 491 32,000  Level Boston Center
16:38 43.0394 -70.9247 38° Northeast 424 488 32,000  Level Boston Center
16:39 43.1261 -70.8189 42° Northeast 418 481 32,000  Level Boston Center
16:40 43.2164 -70.7211 38° Northeast 413 475 32,000  Level Boston Center
16:42 43.3028 -70.6114 43° Northeast 423 487 32,000  Level Boston Center
16:43 43.3922 -70.5183 37° Northeast 411 473 32,000  Level Boston Center
16:44 43.4969 -70.3894 42° Northeast 418 481 32,000  Level Boston Center
16:45 43.5875 -70.2944 37° Northeast 412 474 32,000  Level Boston Center
16:46 43.6764 -70.1833 42° Northeast 423 487 32,000  Level Boston Center
16:47 43.7686 -70.0842 38° Northeast 420 483 32,000  Level Boston Center
16:48 43.8564 -69.9736 42° Northeast 423 487 32,000 -1,320 Level Boston Center
16:49 43.9483 -69.8650 40° Northeast 431 496 29,300 -3,000 Descending Boston Center
16:50 44.0417 -69.7444 43° Northeast 451 519 25,900 -2,640 Descending Boston Center
16:51 44.1311 -69.6531 36° Northeast 401 461 23,900 -1,980 Descending Boston Center
16:52 44.2061 -69.5631 41° Northeast 361 415 21,900 -2,340 Descending Boston Center
16:53 44.2772 -69.4756 41° Northeast 345 397 19,200 -2,820 Descending Boston Center
16:54 44.3483 -69.3928 40° Northeast 334 384 16,200 -2,700 Descending Boston Center
16:55 44.3928 -69.2761 62° Northeast 347 399 13,800 -2,460 Descending Boston Center
16:56 44.4272 -69.1281 72° East 341 392 11,200 -2,340 Descending Boston Center
16:57 44.4600 -69.0219 67° East 321 369 9,100 -1,080 Descending Boston Center
16:58 44.4875 -68.9183 70° East 301 346 9,000 -1,020 Descending Boston Center
16:59 44.5147 -68.8144 70° East 291 335 7,100 -2,100 Descending Boston Center
17:00 44.5592 -68.7358 52° Northeast 264 304 4,800 -2,040 Descending Boston Center
17:01 44.5975 -68.6597 55° Northeast 247 284 3,000 -900 Descending Boston Center
17:02 44.6422 -68.6353 21° North 178 205 3,000  Level Boston Center
17:03 44.6806 -68.6483 346° North 163 188 3,000 -60 Level Boston Center
17:04 44.7086 -68.6861 316° Northwest 138 159 2,900 -540 Descending Boston Center
17:05 44.7353 -68.7244 314° West 138 159 2,000 -840 Descending Boston Center
17:06 44.7600 -68.7597 315° West 130 150 1,300 -720 Descending Boston Center
17:07 44.7844 -68.7961 313° West 129 148 600 -540 Descending Boston Center
17:08 44.8125 -68.8361 315° West 128 147 300 -300 Descending Boston Center